Year,Month,Day,Hour,Minute,Value (Times are PST for temperature in C)
2006,06,28,00,00,11.40
2006,06,28,00,01,11.40
2006,06,28,00,02,11.40
2006,06,28,00,03,11.40
2006,06,28,00,04,11.40
2006,06,28,00,05,11.40
2006,06,28,00,06,11.30
2006,06,28,00,07,11.30
2006,06,28,00,08,11.30
2006,06,28,00,09,11.30
2006,06,28,00,10,11.30
2006,06,28,00,11,11.20
2006,06,28,00,12,11.20
2006,06,28,00,13,11.20
2006,06,28,00,14,11.20
2006,06,28,00,15,11.20
2006,06,28,00,16,11.10
2006,06,28,00,17,11.10
2006,06,28,00,18,11.10
2006,06,28,00,19,11.10
2006,06,28,00,20,11.10
2006,06,28,00,21,11.10
2006,06,28,00,22,11.10
2006,06,28,00,23,11.10
2006,06,28,00,24,11.10
2006,06,28,00,25,11.10
2006,06,28,00,26,11.10
2006,06,28,00,27,11.10
2006,06,28,00,28,11.10
2006,06,28,00,29,11.10
2006,06,28,00,30,11.10
2006,06,28,00,31,11.20
2006,06,28,00,32,11.20
2006,06,28,00,33,11.20
2006,06,28,00,34,11.20
2006,06,28,00,35,11.20
2006,06,28,00,36,11.20
2006,06,28,00,37,11.30
2006,06,28,00,38,11.30
2006,06,28,00,39,11.30
2006,06,28,00,40,11.30
2006,06,28,00,41,11.40
2006,06,28,00,42,11.40
2006,06,28,00,43,11.40
2006,06,28,00,44,11.40
2006,06,28,00,45,11.40
2006,06,28,00,46,11.40
2006,06,28,00,47,11.40
2006,06,28,00,48,11.40
2006,06,28,00,49,11.40
2006,06,28,00,50,11.40
2006,06,28,00,51,11.40
2006,06,28,00,52,11.40
2006,06,28,00,53,11.40
2006,06,28,00,54,11.40
2006,06,28,00,55,11.40
2006,06,28,00,56,11.40
2006,06,28,00,57,11.40
2006,06,28,00,58,11.40
2006,06,28,00,59,11.40
2006,06,28,01,00,11.40
2006,06,28,01,01,11.40
2006,06,28,01,02,11.40
2006,06,28,01,03,11.40
2006,06,28,01,04,11.50
2006,06,28,01,05,11.60
2006,06,28,01,06,11.60
2006,06,28,01,07,11.60
2006,06,28,01,08,11.60
2006,06,28,01,09,11.60
2006,06,28,01,10,11.60
2006,06,28,01,11,11.60
2006,06,28,01,12,11.60
2006,06,28,01,13,11.60
2006,06,28,01,14,11.60
2006,06,28,01,15,11.60
2006,06,28,01,16,11.60
2006,06,28,01,17,11.70
2006,06,28,01,18,11.70
2006,06,28,01,19,11.70
2006,06,28,01,20,11.80
2006,06,28,01,21,11.80
2006,06,28,01,22,11.80
2006,06,28,01,23,11.80
2006,06,28,01,24,11.90
2006,06,28,01,25,11.90
2006,06,28,01,26,12.00
2006,06,28,01,27,12.00
2006,06,28,01,28,12.00
2006,06,28,01,29,12.10
2006,06,28,01,30,12.10
2006,06,28,01,31,12.20
2006,06,28,01,32,12.20
2006,06,28,01,33,12.20
2006,06,28,01,34,12.30
2006,06,28,01,35,12.30
2006,06,28,01,36,12.30
2006,06,28,01,37,12.30
2006,06,28,01,38,12.30
2006,06,28,01,39,12.30
2006,06,28,01,40,12.30
2006,06,28,01,41,12.40
2006,06,28,01,42,12.40
2006,06,28,01,43,12.40
2006,06,28,01,44,12.40
2006,06,28,01,45,12.40
2006,06,28,01,46,12.40
2006,06,28,01,47,12.40
2006,06,28,01,48,12.30
2006,06,28,01,49,12.30
2006,06,28,01,50,12.30
2006,06,28,01,51,12.30
2006,06,28,01,52,12.30
2006,06,28,01,53,12.30
2006,06,28,01,54,12.30
2006,06,28,01,55,12.30
2006,06,28,01,56,12.30
2006,06,28,01,57,12.20
2006,06,28,01,58,12.20
2006,06,28,01,59,12.20
2006,06,28,02,00,12.20
2006,06,28,02,01,12.20
2006,06,28,02,02,12.10
2006,06,28,02,03,12.10
2006,06,28,02,04,12.10
2006,06,28,02,05,12.10
2006,06,28,02,06,12.00
2006,06,28,02,07,12.00
2006,06,28,02,08,12.00
2006,06,28,02,09,12.00
2006,06,28,02,10,11.90
2006,06,28,02,11,11.90
2006,06,28,02,12,11.90
2006,06,28,02,13,11.90
2006,06,28,02,14,11.90
2006,06,28,02,15,11.90
2006,06,28,02,16,11.90
2006,06,28,02,17,11.90
2006,06,28,02,18,11.80
2006,06,28,02,19,11.80
2006,06,28,02,20,11.80
2006,06,28,02,21,11.80
2006,06,28,02,22,11.80
2006,06,28,02,23,11.80
2006,06,28,02,24,11.80
2006,06,28,02,25,11.70
2006,06,28,02,26,11.70
2006,06,28,02,27,11.70
2006,06,28,02,28,11.60
2006,06,28,02,29,11.60
2006,06,28,02,30,11.60
2006,06,28,02,31,11.60
2006,06,28,02,32,11.60
2006,06,28,02,33,11.50
2006,06,28,02,34,11.40
2006,06,28,02,35,11.40
2006,06,28,02,36,11.40
2006,06,28,02,37,11.40
2006,06,28,02,38,11.40
2006,06,28,02,39,11.40
2006,06,28,02,40,11.40
2006,06,28,02,41,11.40
2006,06,28,02,42,11.40
2006,06,28,02,43,11.40
2006,06,28,02,44,11.40
2006,06,28,02,45,11.40
2006,06,28,02,46,11.40
2006,06,28,02,47,11.40
2006,06,28,02,48,11.40
2006,06,28,02,49,11.40
2006,06,28,02,50,11.40
2006,06,28,02,51,11.40
2006,06,28,02,52,11.40
2006,06,28,02,53,11.40
2006,06,28,02,54,11.40
2006,06,28,02,55,11.40
2006,06,28,02,56,11.40
2006,06,28,02,57,11.40
2006,06,28,02,58,11.40
2006,06,28,02,59,11.30
2006,06,28,03,00,11.30
2006,06,28,03,01,11.30
2006,06,28,03,02,11.30
2006,06,28,03,03,11.30
2006,06,28,03,04,11.30
2006,06,28,03,05,11.20
2006,06,28,03,06,11.20
2006,06,28,03,07,11.20
2006,06,28,03,08,11.20
2006,06,28,03,09,11.10
2006,06,28,03,10,11.10
2006,06,28,03,11,11.10
2006,06,28,03,12,11.10
2006,06,28,03,13,11.10
2006,06,28,03,14,11.10
2006,06,28,03,15,11.00
2006,06,28,03,16,10.90
2006,06,28,03,17,10.90
2006,06,28,03,18,10.90
2006,06,28,03,19,10.90
2006,06,28,03,20,10.80
2006,06,28,03,21,10.80
2006,06,28,03,22,10.80
2006,06,28,03,23,10.80
2006,06,28,03,24,10.70
2006,06,28,03,25,10.70
2006,06,28,03,26,10.70
2006,06,28,03,27,10.70
2006,06,28,03,28,10.60
2006,06,28,03,29,10.60
2006,06,28,03,30,10.60
2006,06,28,03,31,10.60
2006,06,28,03,32,10.60
2006,06,28,03,33,10.60
2006,06,28,03,34,10.60
2006,06,28,03,35,10.50
2006,06,28,03,36,10.40
2006,06,28,03,37,10.40
2006,06,28,03,38,10.40
2006,06,28,03,39,10.40
2006,06,28,03,40,10.30
2006,06,28,03,41,10.30
2006,06,28,03,42,10.30
2006,06,28,03,43,10.30
2006,06,28,03,44,10.30
2006,06,28,03,45,10.30
2006,06,28,03,46,10.30
2006,06,28,03,47,10.30
2006,06,28,03,48,10.30
2006,06,28,03,49,10.30
2006,06,28,03,50,10.30
2006,06,28,03,51,10.30
2006,06,28,03,52,10.30
2006,06,28,03,53,10.30
2006,06,28,03,54,10.30
2006,06,28,03,55,10.30
2006,06,28,03,56,10.30
2006,06,28,03,57,10.30
2006,06,28,03,58,10.30
2006,06,28,03,59,10.20
2006,06,28,04,00,10.20
2006,06,28,04,01,10.20
2006,06,28,04,02,10.20
2006,06,28,04,03,10.10
2006,06,28,04,04,10.10
2006,06,28,04,05,10.10
2006,06,28,04,06,10.10
2006,06,28,04,07,10.00
2006,06,28,04,08,9.90
2006,06,28,04,09,9.90
2006,06,28,04,10,9.90
2006,06,28,04,11,9.90
2006,06,28,04,12,9.90
2006,06,28,04,13,9.80
2006,06,28,04,14,9.70
2006,06,28,04,15,9.70
2006,06,28,04,16,9.70
2006,06,28,04,17,9.70
2006,06,28,04,18,9.60
2006,06,28,04,19,9.60
2006,06,28,04,20,9.60
2006,06,28,04,21,9.60
2006,06,28,04,22,9.50
2006,06,28,04,23,9.50
2006,06,28,04,24,9.50
2006,06,28,04,25,9.50
2006,06,28,04,26,9.50
2006,06,28,04,27,9.50
2006,06,28,04,28,9.50
2006,06,28,04,29,9.40
2006,06,28,04,30,9.40
2006,06,28,04,31,9.40
2006,06,28,04,32,9.40
2006,06,28,04,33,9.40
2006,06,28,04,34,9.40
2006,06,28,04,35,9.40
2006,06,28,04,36,9.40
2006,06,28,04,37,9.40
2006,06,28,04,38,9.40
2006,06,28,04,39,9.40
2006,06,28,04,40,9.50
2006,06,28,04,41,9.50
2006,06,28,04,42,9.60
2006,06,28,04,43,9.60
2006,06,28,04,44,9.60
2006,06,28,04,45,9.70
2006,06,28,04,46,9.60
2006,06,28,04,47,9.60
2006,06,28,04,48,9.60
2006,06,28,04,49,9.50
2006,06,28,04,50,9.50
2006,06,28,04,51,9.50
2006,06,28,04,52,9.50
2006,06,28,04,53,9.50
2006,06,28,04,54,9.50
2006,06,28,04,55,9.40
2006,06,28,04,56,9.40
2006,06,28,04,57,9.30
2006,06,28,04,58,9.30
2006,06,28,04,59,9.30
2006,06,28,05,00,9.30
2006,06,28,05,01,9.30
2006,06,28,05,02,9.20
2006,06,28,05,03,9.20
2006,06,28,05,04,9.20
2006,06,28,05,05,9.20
2006,06,28,05,06,9.20
2006,06,28,05,07,9.10
2006,06,28,05,08,9.10
2006,06,28,05,09,9.10
2006,06,28,05,10,9.10
2006,06,28,05,11,9.10
2006,06,28,05,12,9.00
2006,06,28,05,13,9.00
2006,06,28,05,14,9.00
2006,06,28,05,15,9.00
2006,06,28,05,16,9.00
2006,06,28,05,17,9.00
2006,06,28,05,18,9.00
2006,06,28,05,19,9.00
2006,06,28,05,20,9.00
2006,06,28,05,21,9.00
2006,06,28,05,22,8.90
2006,06,28,05,23,8.90
2006,06,28,05,24,8.90
2006,06,28,05,25,8.80
2006,06,28,05,26,8.80
2006,06,28,05,27,8.80
2006,06,28,05,28,8.70
2006,06,28,05,29,8.70
2006,06,28,05,30,8.70
2006,06,28,05,31,8.70
2006,06,28,05,32,8.70
2006,06,28,05,33,8.70
2006,06,28,05,34,8.70
2006,06,28,05,35,8.60
2006,06,28,05,36,8.60
2006,06,28,05,37,8.50
2006,06,28,05,38,8.50
2006,06,28,05,39,8.50
2006,06,28,05,40,8.40
2006,06,28,05,41,8.40
2006,06,28,05,42,8.30
2006,06,28,05,43,8.30
2006,06,28,05,44,8.30
2006,06,28,05,45,8.30
2006,06,28,05,46,8.30
2006,06,28,05,47,8.30
2006,06,28,05,48,8.30
2006,06,28,05,49,8.40
2006,06,28,05,50,8.40
2006,06,28,05,51,8.40
2006,06,28,05,52,8.50
2006,06,28,05,53,8.50
2006,06,28,05,54,8.50
2006,06,28,05,55,8.60
2006,06,28,05,56,8.60
2006,06,28,05,57,8.60
2006,06,28,05,58,8.60
2006,06,28,05,59,8.60
2006,06,28,06,00,8.70
2006,06,28,06,01,8.70
2006,06,28,06,02,8.70
2006,06,28,06,03,8.70
2006,06,28,06,04,8.70
2006,06,28,06,05,8.70
2006,06,28,06,06,8.80
2006,06,28,06,07,8.80
2006,06,28,06,08,8.80
2006,06,28,06,09,8.80
2006,06,28,06,10,8.80
2006,06,28,06,11,8.80
2006,06,28,06,12,8.80
2006,06,28,06,13,8.80
2006,06,28,06,14,8.80
2006,06,28,06,15,8.80
2006,06,28,06,16,8.80
2006,06,28,06,17,8.80
2006,06,28,06,18,8.80
2006,06,28,06,19,8.80
2006,06,28,06,20,8.80
2006,06,28,06,21,8.80
2006,06,28,06,22,8.80
2006,06,28,06,23,8.90
2006,06,28,06,24,8.90
2006,06,28,06,25,8.90
2006,06,28,06,26,8.90
2006,06,28,06,27,8.90
2006,06,28,06,28,8.90
2006,06,28,06,29,8.90
2006,06,28,06,30,8.90
2006,06,28,06,31,9.00
2006,06,28,06,32,9.00
2006,06,28,06,33,9.00
2006,06,28,06,34,9.10
2006,06,28,06,35,9.10
2006,06,28,06,36,9.20
2006,06,28,06,37,9.20
2006,06,28,06,38,9.20
2006,06,28,06,39,9.30
2006,06,28,06,40,9.40
2006,06,28,06,41,9.50
2006,06,28,06,42,9.70
2006,06,28,06,43,9.70
2006,06,28,06,44,9.90
2006,06,28,06,45,10.00
2006,06,28,06,46,10.10
2006,06,28,06,47,10.10
2006,06,28,06,48,10.20
2006,06,28,06,49,10.30
2006,06,28,06,50,10.30
2006,06,28,06,51,10.40
2006,06,28,06,52,10.40
2006,06,28,06,53,10.40
2006,06,28,06,54,10.50
2006,06,28,06,55,10.60
2006,06,28,06,56,10.60
2006,06,28,06,57,10.70
2006,06,28,06,58,10.80
2006,06,28,06,59,10.90
2006,06,28,07,00,10.90
2006,06,28,07,01,10.90
2006,06,28,07,02,10.90
2006,06,28,07,03,10.90
2006,06,28,07,04,11.00
2006,06,28,07,05,11.10
2006,06,28,07,06,11.00
2006,06,28,07,07,10.90
2006,06,28,07,08,10.90
2006,06,28,07,09,10.90
2006,06,28,07,10,10.90
2006,06,28,07,11,10.90
2006,06,28,07,12,10.90
2006,06,28,07,13,10.90
2006,06,28,07,14,10.90
2006,06,28,07,15,11.10
2006,06,28,07,16,11.10
2006,06,28,07,17,11.20
2006,06,28,07,18,11.20
2006,06,28,07,19,11.30
2006,06,28,07,20,11.40
2006,06,28,07,21,11.50
2006,06,28,07,22,11.60
2006,06,28,07,23,11.80
2006,06,28,07,24,11.80
2006,06,28,07,25,11.90
2006,06,28,07,26,12.00
2006,06,28,07,27,12.10
2006,06,28,07,28,12.20
2006,06,28,07,29,12.30
2006,06,28,07,30,12.40
2006,06,28,07,31,12.50
2006,06,28,07,32,12.50
2006,06,28,07,33,12.60
2006,06,28,07,34,12.80
2006,06,28,07,35,12.90
2006,06,28,07,36,12.90
2006,06,28,07,37,13.00
2006,06,28,07,38,13.00
2006,06,28,07,39,13.10
2006,06,28,07,40,13.20
2006,06,28,07,41,13.20
2006,06,28,07,42,13.30
2006,06,28,07,43,13.40
2006,06,28,07,44,13.40
2006,06,28,07,45,13.50
2006,06,28,07,46,13.60
2006,06,28,07,47,13.70
2006,06,28,07,48,13.80
2006,06,28,07,49,13.90
2006,06,28,07,50,14.00
2006,06,28,07,51,14.10
2006,06,28,07,52,14.20
2006,06,28,07,53,14.20
2006,06,28,07,54,14.30
2006,06,28,07,55,14.50
2006,06,28,07,56,14.50
2006,06,28,07,57,14.60
2006,06,28,07,58,14.70
2006,06,28,07,59,14.70
2006,06,28,08,00,14.80
2006,06,28,08,01,14.90
2006,06,28,08,02,14.90
2006,06,28,08,03,14.90
2006,06,28,08,04,15.00
2006,06,28,08,05,15.10
2006,06,28,08,06,15.20
2006,06,28,08,07,15.30
2006,06,28,08,08,15.30
2006,06,28,08,09,15.30
2006,06,28,08,10,15.30
2006,06,28,08,11,15.40
2006,06,28,08,12,15.40
2006,06,28,08,13,15.40
2006,06,28,08,14,15.40
2006,06,28,08,15,15.50
2006,06,28,08,16,15.50
2006,06,28,08,17,15.50
2006,06,28,08,18,15.40
2006,06,28,08,19,15.40
2006,06,28,08,20,15.40
2006,06,28,08,21,15.40
2006,06,28,08,22,15.40
2006,06,28,08,23,15.40
2006,06,28,08,24,15.40
2006,06,28,08,25,15.50
2006,06,28,08,26,15.60
2006,06,28,08,27,15.60
2006,06,28,08,28,15.70
2006,06,28,08,29,15.80
2006,06,28,08,30,15.80
2006,06,28,08,31,15.70
2006,06,28,08,32,15.70
2006,06,28,08,33,15.70
2006,06,28,08,34,15.60
2006,06,28,08,35,15.60
2006,06,28,08,36,15.50
2006,06,28,08,37,15.40
2006,06,28,08,38,15.30
2006,06,28,08,39,15.30
2006,06,28,08,40,15.40
2006,06,28,08,41,15.40
2006,06,28,08,42,15.40
2006,06,28,08,43,15.40
2006,06,28,08,44,15.40
2006,06,28,08,45,15.50
2006,06,28,08,46,15.50
2006,06,28,08,47,15.60
2006,06,28,08,48,15.70
2006,06,28,08,49,15.80
2006,06,28,08,50,15.90
2006,06,28,08,51,16.10
2006,06,28,08,52,16.20
2006,06,28,08,53,16.40
2006,06,28,08,54,16.40
2006,06,28,08,55,16.60
2006,06,28,08,56,16.60
2006,06,28,08,57,16.60
2006,06,28,08,58,16.60
2006,06,28,08,59,16.70
2006,06,28,09,00,16.70
2006,06,28,09,01,16.50
2006,06,28,09,02,16.40
2006,06,28,09,03,16.40
2006,06,28,09,04,16.30
2006,06,28,09,05,16.30
2006,06,28,09,06,16.30
2006,06,28,09,07,16.30
2006,06,28,09,08,16.30
2006,06,28,09,09,16.30
2006,06,28,09,10,16.40
2006,06,28,09,11,16.40
2006,06,28,09,12,16.30
2006,06,28,09,13,16.30
2006,06,28,09,14,16.30
2006,06,28,09,15,16.20
2006,06,28,09,16,16.20
2006,06,28,09,17,16.30
2006,06,28,09,18,16.20
2006,06,28,09,19,16.30
2006,06,28,09,20,16.40
2006,06,28,09,21,16.30
2006,06,28,09,22,16.30
2006,06,28,09,23,16.30
2006,06,28,09,24,16.30
2006,06,28,09,25,16.40
2006,06,28,09,26,16.30
2006,06,28,09,27,16.30
2006,06,28,09,28,16.30
2006,06,28,09,29,16.40
2006,06,28,09,30,16.40
2006,06,28,09,31,16.40
2006,06,28,09,32,16.60
2006,06,28,09,33,16.60
2006,06,28,09,34,16.40
2006,06,28,09,35,16.30
2006,06,28,09,36,16.20
2006,06,28,09,37,16.20
2006,06,28,09,38,16.20
2006,06,28,09,39,16.20
2006,06,28,09,40,16.10
2006,06,28,09,41,16.00
2006,06,28,09,42,15.90
2006,06,28,09,43,15.80
2006,06,28,09,44,15.80
2006,06,28,09,45,15.80
2006,06,28,09,46,15.80
2006,06,28,09,47,15.80
2006,06,28,09,48,15.80
2006,06,28,09,49,15.90
2006,06,28,09,50,16.10
2006,06,28,09,51,16.10
2006,06,28,09,52,16.10
2006,06,28,09,53,16.20
2006,06,28,09,54,16.20
2006,06,28,09,55,16.20
2006,06,28,09,56,16.30
2006,06,28,09,57,16.30
2006,06,28,09,58,16.30
2006,06,28,09,59,16.30
2006,06,28,10,00,16.30
2006,06,28,10,01,16.30
2006,06,28,10,02,16.30
2006,06,28,10,03,16.30
2006,06,28,10,04,16.30
2006,06,28,10,05,16.40
2006,06,28,10,06,16.40
2006,06,28,10,07,16.40
2006,06,28,10,08,16.50
2006,06,28,10,09,16.70
2006,06,28,10,10,16.70
2006,06,28,10,11,16.60
2006,06,28,10,12,16.50
2006,06,28,10,13,16.30
2006,06,28,10,14,16.20
2006,06,28,10,15,16.20
2006,06,28,10,16,16.30
2006,06,28,10,17,16.30
2006,06,28,10,18,16.40
2006,06,28,10,19,16.40
2006,06,28,10,20,16.40
2006,06,28,10,21,16.40
2006,06,28,10,22,16.30
2006,06,28,10,23,16.40
2006,06,28,10,24,16.50
2006,06,28,10,25,16.60
2006,06,28,10,26,16.70
2006,06,28,10,27,16.70
2006,06,28,10,28,16.70
2006,06,28,10,29,16.80
2006,06,28,10,30,16.90
2006,06,28,10,31,16.90
2006,06,28,10,32,16.80
2006,06,28,10,33,16.80
2006,06,28,10,34,16.80
2006,06,28,10,35,16.90
2006,06,28,10,36,16.90
2006,06,28,10,37,17.00
2006,06,28,10,38,17.00
2006,06,28,10,39,16.90
2006,06,28,10,40,17.00
2006,06,28,10,41,17.00
2006,06,28,10,42,17.10
2006,06,28,10,43,17.10
2006,06,28,10,44,17.00
2006,06,28,10,45,16.90
2006,06,28,10,46,16.80
2006,06,28,10,47,16.90
2006,06,28,10,48,17.00
2006,06,28,10,49,16.90
2006,06,28,10,50,16.80
2006,06,28,10,51,16.70
2006,06,28,10,52,16.60
2006,06,28,10,53,16.40
2006,06,28,10,54,16.40
2006,06,28,10,55,16.30
2006,06,28,10,56,16.30
2006,06,28,10,57,16.30
2006,06,28,10,58,16.20
2006,06,28,10,59,16.10
2006,06,28,11,00,16.00
2006,06,28,11,01,16.00
2006,06,28,11,02,16.10
2006,06,28,11,03,16.10
2006,06,28,11,04,16.20
2006,06,28,11,05,16.30
2006,06,28,11,06,16.40
2006,06,28,11,07,16.70
2006,06,28,11,08,16.80
2006,06,28,11,09,16.80
2006,06,28,11,10,16.70
2006,06,28,11,11,16.50
2006,06,28,11,12,16.50
2006,06,28,11,13,16.50
2006,06,28,11,14,16.60
2006,06,28,11,15,16.60
2006,06,28,11,16,16.70
2006,06,28,11,17,16.80
2006,06,28,11,18,16.90
2006,06,28,11,19,17.00
2006,06,28,11,20,17.10
2006,06,28,11,21,17.30
2006,06,28,11,22,17.30
2006,06,28,11,23,17.20
2006,06,28,11,24,17.10
2006,06,28,11,25,16.90
2006,06,28,11,26,16.80
2006,06,28,11,27,16.80
2006,06,28,11,28,16.90
2006,06,28,11,29,17.00
2006,06,28,11,30,17.20
2006,06,28,11,31,17.30
2006,06,28,11,32,17.30
2006,06,28,11,33,17.40
2006,06,28,11,34,17.40
2006,06,28,11,35,17.40
2006,06,28,11,36,17.40
2006,06,28,11,37,17.20
2006,06,28,11,38,17.10
2006,06,28,11,39,17.00
2006,06,28,11,40,16.90
2006,06,28,11,41,16.70
2006,06,28,11,42,16.70
2006,06,28,11,43,16.80
2006,06,28,11,44,16.90
2006,06,28,11,45,16.80
2006,06,28,11,46,16.70
2006,06,28,11,47,16.60
2006,06,28,11,48,16.50
2006,06,28,11,49,16.70
2006,06,28,11,50,16.80
2006,06,28,11,51,17.00
2006,06,28,11,52,17.10
2006,06,28,11,53,17.10
2006,06,28,11,54,17.10
2006,06,28,11,55,17.10
2006,06,28,11,56,17.00
2006,06,28,11,57,16.90
2006,06,28,11,58,16.70
2006,06,28,11,59,16.60
2006,06,28,12,00,16.50
2006,06,28,12,01,16.40
2006,06,28,12,02,16.30
2006,06,28,12,03,16.40
2006,06,28,12,04,16.40
2006,06,28,12,05,16.50
2006,06,28,12,06,16.60
2006,06,28,12,07,16.70
2006,06,28,12,08,16.80
2006,06,28,12,09,16.80
2006,06,28,12,10,16.90
2006,06,28,12,11,16.90
2006,06,28,12,12,16.90
2006,06,28,12,13,16.90
2006,06,28,12,14,16.90
2006,06,28,12,15,17.00
2006,06,28,12,16,16.90
2006,06,28,12,17,16.80
2006,06,28,12,18,16.70
2006,06,28,12,19,16.70
2006,06,28,12,20,16.80
2006,06,28,12,21,16.90
2006,06,28,12,22,17.00
2006,06,28,12,23,17.00
2006,06,28,12,24,16.90
2006,06,28,12,25,16.80
2006,06,28,12,26,16.70
2006,06,28,12,27,16.70
2006,06,28,12,28,16.80
2006,06,28,12,29,16.70
2006,06,28,12,30,16.60
2006,06,28,12,31,16.40
2006,06,28,12,32,16.40
2006,06,28,12,33,16.40
2006,06,28,12,34,16.60
2006,06,28,12,35,16.60
2006,06,28,12,36,16.70
2006,06,28,12,37,16.70
2006,06,28,12,38,16.70
2006,06,28,12,39,16.80
2006,06,28,12,40,16.90
2006,06,28,12,41,17.00
2006,06,28,12,42,17.10
2006,06,28,12,43,17.30
2006,06,28,12,44,17.30
2006,06,28,12,45,17.30
2006,06,28,12,46,17.20
2006,06,28,12,47,17.20
2006,06,28,12,48,17.40
2006,06,28,12,49,17.50
2006,06,28,12,50,17.50
2006,06,28,12,51,17.50
2006,06,28,12,52,17.40
2006,06,28,12,53,17.50
2006,06,28,12,54,17.70
2006,06,28,12,55,17.80
2006,06,28,12,56,17.70
2006,06,28,12,57,17.70
2006,06,28,12,58,17.70
2006,06,28,12,59,17.80
2006,06,28,13,00,18.00
2006,06,28,13,01,18.10
2006,06,28,13,02,18.20
2006,06,28,13,03,18.10
2006,06,28,13,04,17.90
2006,06,28,13,05,17.80
2006,06,28,13,06,17.90
2006,06,28,13,07,17.80
2006,06,28,13,08,17.70
2006,06,28,13,09,17.60
2006,06,28,13,10,17.50
2006,06,28,13,11,17.50
2006,06,28,13,12,17.40
2006,06,28,13,13,17.30
2006,06,28,13,14,17.50
2006,06,28,13,15,17.70
2006,06,28,13,16,17.70
2006,06,28,13,17,17.90
2006,06,28,13,18,18.00
2006,06,28,13,19,17.90
2006,06,28,13,20,17.80
2006,06,28,13,21,17.70
2006,06,28,13,22,17.50
2006,06,28,13,23,17.30
2006,06,28,13,24,17.30
2006,06,28,13,25,17.30
2006,06,28,13,26,17.30
2006,06,28,13,27,17.30
2006,06,28,13,28,17.40
2006,06,28,13,29,17.60
2006,06,28,13,30,17.60
2006,06,28,13,31,17.50
2006,06,28,13,32,17.50
2006,06,28,13,33,17.60
2006,06,28,13,34,17.60
2006,06,28,13,35,17.60
2006,06,28,13,36,17.70
2006,06,28,13,37,17.70
2006,06,28,13,38,17.50
2006,06,28,13,39,17.30
2006,06,28,13,40,17.20
2006,06,28,13,41,17.10
2006,06,28,13,42,17.00
2006,06,28,13,43,17.00
2006,06,28,13,44,17.10
2006,06,28,13,45,17.20
2006,06,28,13,46,17.20
2006,06,28,13,47,17.30
2006,06,28,13,48,17.30
2006,06,28,13,49,17.30
2006,06,28,13,50,17.40
2006,06,28,13,51,17.50
2006,06,28,13,52,17.50
2006,06,28,13,53,17.50
2006,06,28,13,54,17.60
2006,06,28,13,55,17.80
2006,06,28,13,56,17.70
2006,06,28,13,57,17.70
2006,06,28,13,58,17.50
2006,06,28,13,59,17.60
2006,06,28,14,00,17.60
2006,06,28,14,01,17.60
2006,06,28,14,02,17.60
2006,06,28,14,03,17.70
2006,06,28,14,04,17.90
2006,06,28,14,05,17.90
2006,06,28,14,06,18.00
2006,06,28,14,07,17.90
2006,06,28,14,08,17.90
2006,06,28,14,09,17.90
2006,06,28,14,10,17.70
2006,06,28,14,11,17.50
2006,06,28,14,12,17.40
2006,06,28,14,13,17.50
2006,06,28,14,14,17.70
2006,06,28,14,15,17.80
2006,06,28,14,16,17.90
2006,06,28,14,17,17.90
2006,06,28,14,18,17.70
2006,06,28,14,19,17.70
2006,06,28,14,20,17.80
2006,06,28,14,21,17.80
2006,06,28,14,22,17.90
2006,06,28,14,23,17.90
2006,06,28,14,24,17.90
2006,06,28,14,25,17.90
2006,06,28,14,26,18.00
2006,06,28,14,27,18.20
2006,06,28,14,28,18.30
2006,06,28,14,29,18.30
2006,06,28,14,30,18.20
2006,06,28,14,31,18.00
2006,06,28,14,32,17.90
2006,06,28,14,33,17.90
2006,06,28,14,34,17.90
2006,06,28,14,35,18.10
2006,06,28,14,36,18.10
2006,06,28,14,37,18.20
2006,06,28,14,38,18.20
2006,06,28,14,39,18.20
2006,06,28,14,40,18.20
2006,06,28,14,41,18.20
2006,06,28,14,42,18.10
2006,06,28,14,43,17.90
2006,06,28,14,44,17.70
2006,06,28,14,45,17.70
2006,06,28,14,46,17.70
2006,06,28,14,47,17.80
2006,06,28,14,48,17.90
2006,06,28,14,49,17.90
2006,06,28,14,50,18.10
2006,06,28,14,51,18.20
2006,06,28,14,52,18.20
2006,06,28,14,53,18.20
2006,06,28,14,54,18.20
2006,06,28,14,55,18.30
2006,06,28,14,56,18.40
2006,06,28,14,57,18.40
2006,06,28,14,58,18.50
2006,06,28,14,59,18.60
2006,06,28,15,00,18.70
2006,06,28,15,01,18.60
2006,06,28,15,02,18.60
2006,06,28,15,03,18.60
2006,06,28,15,04,18.50
2006,06,28,15,05,18.40
2006,06,28,15,06,18.40
2006,06,28,15,07,18.40
2006,06,28,15,08,18.40
2006,06,28,15,09,18.40
2006,06,28,15,10,18.50
2006,06,28,15,11,18.70
2006,06,28,15,12,18.80
2006,06,28,15,13,18.90
2006,06,28,15,14,19.00
2006,06,28,15,15,19.00
2006,06,28,15,16,18.90
2006,06,28,15,17,18.90
2006,06,28,15,18,18.80
2006,06,28,15,19,18.80
2006,06,28,15,20,18.90
2006,06,28,15,21,18.90
2006,06,28,15,22,18.90
2006,06,28,15,23,18.90
2006,06,28,15,24,18.90
2006,06,28,15,25,18.90
2006,06,28,15,26,18.90
2006,06,28,15,27,19.00
2006,06,28,15,28,19.10
2006,06,28,15,29,19.30
2006,06,28,15,30,19.40
2006,06,28,15,31,19.60
2006,06,28,15,32,19.50
2006,06,28,15,33,19.40
2006,06,28,15,34,19.40
2006,06,28,15,35,19.30
2006,06,28,15,36,19.30
2006,06,28,15,37,19.20
2006,06,28,15,38,19.10
2006,06,28,15,39,19.10
2006,06,28,15,40,19.00
2006,06,28,15,41,18.90
2006,06,28,15,42,18.90
2006,06,28,15,43,18.90
2006,06,28,15,44,18.90
2006,06,28,15,45,18.80
2006,06,28,15,46,18.80
2006,06,28,15,47,18.90
2006,06,28,15,48,18.90
2006,06,28,15,49,18.90
2006,06,28,15,50,18.90
2006,06,28,15,51,19.10
2006,06,28,15,52,19.10
2006,06,28,15,53,19.10
2006,06,28,15,54,19.10
2006,06,28,15,55,19.10
2006,06,28,15,56,19.10
2006,06,28,15,57,19.30
2006,06,28,15,58,19.30
2006,06,28,15,59,19.30
2006,06,28,16,00,19.30
2006,06,28,16,01,19.20
2006,06,28,16,02,19.20
2006,06,28,16,03,19.10
2006,06,28,16,04,19.20
2006,06,28,16,05,19.30
2006,06,28,16,06,19.20
2006,06,28,16,07,19.20
2006,06,28,16,08,19.20
2006,06,28,16,09,19.30
2006,06,28,16,10,19.30
2006,06,28,16,11,19.30
2006,06,28,16,12,19.40
2006,06,28,16,13,19.50
2006,06,28,16,14,19.50
2006,06,28,16,15,19.50
2006,06,28,16,16,19.60
2006,06,28,16,17,19.60
2006,06,28,16,18,19.80
2006,06,28,16,19,19.80
2006,06,28,16,20,19.80
2006,06,28,16,21,19.80
2006,06,28,16,22,19.80
2006,06,28,16,23,19.80
2006,06,28,16,24,19.70
2006,06,28,16,25,19.50
2006,06,28,16,26,19.50
2006,06,28,16,27,19.60
2006,06,28,16,28,19.50
2006,06,28,16,29,19.40
2006,06,28,16,30,19.40
2006,06,28,16,31,19.50
2006,06,28,16,32,19.50
2006,06,28,16,33,19.60
2006,06,28,16,34,19.70
2006,06,28,16,35,19.60
2006,06,28,16,36,19.40
2006,06,28,16,37,19.50
2006,06,28,16,38,19.60
2006,06,28,16,39,19.60
2006,06,28,16,40,19.60
2006,06,28,16,41,19.60
2006,06,28,16,42,19.60
2006,06,28,16,43,19.60
2006,06,28,16,44,19.70
2006,06,28,16,45,19.70
2006,06,28,16,46,19.50
2006,06,28,16,47,19.60
2006,06,28,16,48,19.70
2006,06,28,16,49,19.60
2006,06,28,16,50,19.70
2006,06,28,16,51,19.70
2006,06,28,16,52,19.80
2006,06,28,16,53,19.80
2006,06,28,16,54,19.70
2006,06,28,16,55,19.70
2006,06,28,16,56,19.70
2006,06,28,16,57,19.70
2006,06,28,16,58,19.80
2006,06,28,16,59,19.80
2006,06,28,17,00,19.90
2006,06,28,17,01,19.90
2006,06,28,17,02,19.90
2006,06,28,17,03,19.90
2006,06,28,17,04,20.00
2006,06,28,17,05,20.10
2006,06,28,17,06,20.20
2006,06,28,17,07,20.20
2006,06,28,17,08,20.10
2006,06,28,17,09,20.10
2006,06,28,17,10,20.10
2006,06,28,17,11,20.20
2006,06,28,17,12,20.20
2006,06,28,17,13,20.40
2006,06,28,17,14,20.50
2006,06,28,17,15,20.60
2006,06,28,17,16,20.50
2006,06,28,17,17,20.50
2006,06,28,17,18,20.50
2006,06,28,17,19,20.50
2006,06,28,17,20,20.40
2006,06,28,17,21,20.40
2006,06,28,17,22,20.40
2006,06,28,17,23,20.40
2006,06,28,17,24,20.40
2006,06,28,17,25,20.40
2006,06,28,17,26,20.40